| time (UTC) | temp F | wind direction | speed MPH | gust MPH | rain 1hr in | rain 24hr in | rain mn in | humidity % | barometer mb |
| 20260906231017 | 94 | 208 | 2.0 | 4.0 | 0.00 | 0.00 | 0.00 | 18 | 1016.8 |
| 20260906230018 | 94 | 350 | 2.0 | 5.0 | 0.00 | 0.00 | 0.00 | 18 | 1016.8 |
| 20260906225018 | 95 | 324 | 1.0 | 3.0 | 0.00 | 0.00 | 0.00 | 18 | 1016.8 |
| 20260906224018 | 95 | 234 | 3.0 | 8.0 | 0.00 | 0.00 | 0.00 | 17 | 1016.8 |
| 20260906223015 | 95 | 183 | 3.0 | 8.0 | 0.00 | 0.00 | 0.00 | 18 | 1016.8 |
| 20260906222035 | 94 | 171 | 2.0 | 6.0 | 0.00 | 0.00 | 0.00 | 18 | 1016.9 |
| 20260906221015 | 94 | 12 | 1.0 | 3.0 | 0.00 | 0.00 | 0.00 | 18 | 1017.1 |
| 20260906220016 | 94 | 215 | 3.0 | 9.0 | 0.00 | 0.00 | 0.00 | 18 | 1017.3 |
| 20260906215036 | 95 | 199 | 2.0 | 6.0 | 0.00 | 0.00 | 0.00 | 18 | 1017.4 |
| 20260906214036 | 94 | 201 | 2.0 | 6.0 | 0.00 | 0.00 | 0.00 | 17 | 1017.6 |
| 20260906213016 | 95 | 186 | 3.0 | 6.0 | 0.00 | 0.00 | 0.00 | 18 | 1017.8 |
| 20260906212016 | 95 | 13 | 1.0 | 3.0 | 0.00 | 0.00 | 0.00 | 16 | 1017.9 |
| 20260906211036 | 94 | 147 | 2.0 | 7.0 | 0.00 | 0.00 | 0.00 | 17 | 1018.1 |
| 20260906210016 | 95 | 188 | 3.0 | 8.0 | 0.00 | 0.00 | 0.00 | 16 | 1018.2 |
| 20260906205016 | 94 | 187 | 2.0 | 5.0 | 0.00 | 0.00 | 0.00 | 16 | 1018.4 |
| 20260906204036 | 94 | 68 | 1.0 | 4.0 | 0.00 | 0.00 | 0.00 | 17 | 1018.5 |
| 20260906203017 | 95 | 171 | 2.0 | 6.0 | 0.00 | 0.00 | 0.00 | 16 | 1018.7 |
| 20260906202017 | 94 | 131 | 2.0 | 4.0 | 0.00 | 0.00 | 0.00 | 17 | 1018.9 |
| 20260906201017 | 92 | 26 | 2.0 | 4.0 | 0.00 | 0.00 | 0.00 | 18 | 1018.9 |
| 20260906200017 | 91 | 52 | 1.0 | 3.0 | 0.00 | 0.00 | 0.00 | 18 | 1019.0 |
| 20260906195017 | 91 | 14 | 3.0 | 7.0 | 0.00 | 0.00 | 0.00 | 18 | 1019.2 |
| 20260906194018 | 92 | 14 | 5.0 | 8.0 | 0.00 | 0.00 | 0.00 | 18 | 1019.2 |
| 20260906193017 | 92 | 48 | 2.0 | 4.0 | 0.00 | 0.00 | 0.00 | 17 | 1019.3 |
| 20260906192017 | 92 | 136 | 2.0 | 5.0 | 0.00 | 0.00 | 0.00 | 17 | 1019.5 |
| 20260906191018 | 91 | 291 | 1.0 | 4.0 | 0.00 | 0.00 | 0.00 | 17 | 1019.7 |
| 20260906190038 | 91 | 5 | 2.0 | 5.0 | 0.00 | 0.00 | 0.00 | 18 | 1019.9 |
| 20260906185038 | 90 | 11 | 4.0 | 7.0 | 0.00 | 0.00 | 0.00 | 18 | 1020.1 |
| 20260906184015 | 89 | 200 | 2.0 | 5.0 | 0.00 | 0.00 | 0.00 | 19 | 1020.2 |
| 20260906183035 | 90 | 169 | 2.0 | 5.0 | 0.00 | 0.00 | 0.00 | 19 | 1020.3 |
| 20260906182016 | 88 | 11 | 3.0 | 7.0 | 0.00 | 0.00 | 0.00 | 19 | 1020.5 |
| 20260906181015 | 88 | 88 | 1.0 | 4.0 | 0.00 | 0.00 | 0.00 | 21 | 1020.7 |
| 20260906180016 | 88 | 36 | 2.0 | 5.0 | 0.00 | 0.00 | 0.00 | 22 | 1020.9 |
| 20260906175036 | 88 | 46 | 1.0 | 3.0 | 0.00 | 0.00 | 0.00 | 23 | 1020.9 |
| 20260906174016 | 87 | 26 | 1.0 | 3.0 | 0.00 | 0.00 | 0.00 | 24 | 1021.1 |
| 20260906173016 | 85 | 54 | 1.0 | 3.0 | 0.00 | 0.00 | 0.00 | 26 | 1021.2 |
| 20260906172016 | 84 | 71 | 1.0 | 5.0 | 0.00 | 0.00 | 0.00 | 27 | 1021.3 |
| 20260906171016 | 83 | 23 | 2.0 | 4.0 | 0.00 | 0.00 | 0.00 | 28 | 1021.4 |
| 20260906170016 | 82 | 23 | 3.0 | 7.0 | 0.00 | 0.00 | 0.00 | 29 | 1021.5 |
| 20260906165016 | 82 | 30 | 2.0 | 6.0 | 0.00 | 0.00 | 0.00 | 29 | 1021.6 |
| 20260906164017 | 81 | 27 | 2.0 | 6.0 | 0.00 | 0.00 | 0.00 | 30 | 1021.6 |
| 20260906163017 | 81 | 24 | 3.0 | 8.0 | 0.00 | 0.00 | 0.00 | 30 | 1021.6 |
| 20260906162017 | 81 | 26 | 3.0 | 7.0 | 0.00 | 0.00 | 0.00 | 30 | 1021.6 |
| 20260906161037 | 81 | 21 | 3.0 | 6.0 | 0.00 | 0.00 | 0.00 | 29 | 1021.6 |
| 20260906160018 | 80 | 37 | 2.0 | 4.0 | 0.00 | 0.00 | 0.00 | 30 | 1021.6 |
| 20260906155017 | 80 | 15 | 4.0 | 9.0 | 0.00 | 0.00 | 0.00 | 30 | 1021.6 |
| 20260906154038 | 79 | 12 | 5.0 | 10.0 | 0.00 | 0.00 | 0.00 | 29 | 1021.5 |
| 20260906153017 | 79 | 358 | 4.0 | 8.0 | 0.00 | 0.00 | 0.00 | 29 | 1021.5 |
| 20260906152018 | 78 | 360 | 5.0 | 9.0 | 0.00 | 0.00 | 0.00 | 30 | 1021.5 |
| 20260906151015 | 77 | 356 | 5.0 | 8.0 | 0.00 | 0.00 | 0.00 | 31 | 1021.5 |
| 20260906150035 | 76 | 357 | 5.0 | 10.0 | 0.00 | 0.00 | 0.00 | 31 | 1021.6 |
| 20260906145015 | 76 | 5 | 6.0 | 11.0 | 0.00 | 0.00 | 0.00 | 31 | 1021.6 |
| 20260906144015 | 76 | 11 | 7.0 | 12.0 | 0.00 | 0.00 | 0.00 | 31 | 1021.5 |
| 20260906143016 | 76 | 11 | 7.0 | 11.0 | 0.00 | 0.00 | 0.00 | 31 | 1021.5 |
| 20260906142036 | 75 | 4 | 4.0 | 8.0 | 0.00 | 0.00 | 0.00 | 32 | 1021.4 |
| 20260906141016 | 74 | 12 | 1.0 | 2.0 | 0.00 | 0.00 | 0.00 | 33 | 1021.4 |
| 20260906140016 | 73 | 19 | 1.0 | 2.0 | 0.00 | 0.00 | 0.00 | 33 | 1021.3 |
| 20260906135016 | 72 | 4 | 4.0 | 6.0 | 0.00 | 0.00 | 0.00 | 33 | 1021.2 |
| 20260906134036 | 71 | 337 | 3.0 | 5.0 | 0.00 | 0.00 | 0.00 | 34 | 1021.0 |
| 20260906133017 | 69 | 335 | 3.0 | 5.0 | 0.00 | 0.00 | 0.00 | 35 | 1021.0 |
| 20260906132037 | 69 | 11 | 2.0 | 4.0 | 0.00 | 0.00 | 0.00 | 36 | 1021.0 |
| 20260906131017 | 70 | 343 | 2.0 | 4.0 | 0.00 | 0.00 | 0.00 | 35 | 1021.0 |
| 20260906130017 | 70 | 325 | 2.0 | 3.0 | 0.00 | 0.00 | 0.00 | 35 | 1020.9 |
| 20260906125017 | 70 | 323 | 1.0 | 3.0 | 0.00 | 0.00 | 0.00 | 35 | 1020.8 |
| 20260906124017 | 70 | 322 | 2.0 | 3.0 | 0.00 | 0.00 | 0.00 | 35 | 1020.8 |
| 20260906123017 | 70 | 321 | 2.0 | 3.0 | 0.00 | 0.00 | 0.00 | 34 | 1020.8 |
| 20260906122018 | 70 | 326 | 2.0 | 4.0 | 0.00 | 0.00 | 0.00 | 34 | 1020.8 |
| 20260906121018 | 70 | 328 | 3.0 | 6.0 | 0.00 | 0.00 | 0.00 | 34 | 1020.8 |
| 20260906120018 | 70 | 326 | 2.0 | 3.0 | 0.00 | 0.00 | 0.00 | 34 | 1020.7 |
| 20260906115018 | 71 | 358 | 1.0 | 3.0 | 0.00 | 0.00 | 0.00 | 34 | 1020.7 |
| 20260906114018 | 71 | 8 | 1.0 | 3.0 | 0.00 | 0.00 | 0.00 | 34 | 1020.6 |
| 20260906113015 | 71 | 10 | 1.0 | 2.0 | 0.00 | 0.00 | 0.00 | 35 | 1020.6 |
| 20260906112035 | 72 | 316 | 1.0 | 3.0 | 0.00 | 0.00 | 0.00 | 34 | 1020.7 |
| 20260906111015 | 73 | 4 | 1.0 | 2.0 | 0.00 | 0.00 | 0.00 | 32 | 1020.6 |
| 20260906110016 | 73 | 11 | 1.0 | 3.0 | 0.00 | 0.00 | 0.00 | 33 | 1020.5 |
| 20260906105016 | 73 | 356 | 1.0 | 2.0 | 0.00 | 0.00 | 0.00 | 33 | 1020.5 |
| 20260906104016 | 74 | 7 | 2.0 | 5.0 | 0.00 | 0.00 | 0.00 | 33 | 1020.5 |
| 20260906103017 | 74 | 334 | 3.0 | 5.0 | 0.00 | 0.00 | 0.00 | 33 | 1020.4 |
| 20260906102017 | 73 | 332 | 2.0 | 4.0 | 0.00 | 0.00 | 0.00 | 34 | 1020.4 |
| 20260906101017 | 73 | 327 | 0.0 | 1.0 | 0.00 | 0.00 | 0.00 | 35 | 1020.4 |
| 20260906100017 | 74 | 315 | 1.0 | 2.0 | 0.00 | 0.00 | 0.00 | 34 | 1020.3 |
| 20260906095017 | 74 | 308 | 0.0 | 1.0 | 0.00 | 0.00 | 0.00 | 33 | 1020.3 |
| 20260906094017 | 74 | 346 | 1.0 | 2.0 | 0.00 | 0.00 | 0.00 | 33 | 1020.3 |
| 20260906093017 | 74 | 331 | 1.0 | 3.0 | 0.00 | 0.00 | 0.00 | 33 | 1020.2 |
| 20260906092018 | 74 | 350 | 1.0 | 3.0 | 0.00 | 0.00 | 0.00 | 33 | 1020.1 |
| 20260906091018 | 74 | 5 | 2.0 | 3.0 | 0.00 | 0.00 | 0.00 | 34 | 1020.2 |
| 20260906090018 | 74 | 8 | 2.0 | 4.0 | 0.00 | 0.00 | 0.00 | 33 | 1020.0 |
| 20260906085018 | 74 | 333 | 1.0 | 3.0 | 0.00 | 0.00 | 0.00 | 33 | 1020.0 |
| 20260906084015 | 74 | 324 | 1.0 | 3.0 | 0.00 | 0.00 | 0.00 | 33 | 1020.1 |
| 20260906083015 | 75 | 329 | 1.0 | 2.0 | 0.00 | 0.00 | 0.00 | 33 | 1020.2 |
| 20260906082015 | 75 | 317 | 1.0 | 2.0 | 0.00 | 0.00 | 0.00 | 33 | 1020.2 |
| 20260906081056 | 75 | 320 | 1.0 | 2.0 | 0.00 | 0.00 | 0.00 | 33 | 1020.3 |
| 20260906080036 | 75 | 323 | 1.0 | 3.0 | 0.00 | 0.00 | 0.00 | 33 | 1020.4 |
| 20260906075016 | 75 | 288 | 1.0 | 2.0 | 0.00 | 0.00 | 0.00 | 32 | 1020.5 |
| 20260906074035 | 74 | 325 | 1.0 | 3.0 | 0.00 | 0.00 | 0.00 | 34 | 1020.6 |
| 20260906073016 | 74 | 299 | 1.0 | 1.0 | 0.00 | 0.00 | 0.00 | 34 | 1020.6 |
| 20260906072016 | 74 | 306 | 1.0 | 2.0 | 0.00 | 0.00 | 0.00 | 35 | 1020.6 |
| 20260906071016 | 75 | 265 | 1.0 | 2.0 | 0.00 | 0.00 | 0.00 | 34 | 1020.6 |
| 20260906070016 | 75 | 252 | 0.0 | 1.0 | 0.00 | 0.00 | 0.00 | 34 | 1020.6 |
| 20260906065016 | 75 | 260 | 1.0 | 3.0 | 0.00 | 0.00 | 0.00 | 33 | 1020.5 |
| 20260906064036 | 76 | 6 | 0.0 | 2.0 | 0.00 | 0.00 | 0.00 | 33 | 1020.5 |
| 20260906063017 | 75 | 55 | 1.0 | 3.0 | 0.00 | 0.00 | 0.00 | 34 | 1020.4 |
| 20260906062017 | 75 | 156 | 0.0 | 1.0 | 0.00 | 0.00 | 0.00 | 35 | 1020.2 |
| 20260906061017 | 76 | 139 | 0.0 | 1.0 | 0.00 | 0.00 | 0.00 | 33 | 1020.1 |
| 20260906060017 | 77 | 351 | 2.0 | 4.0 | 0.00 | 0.00 | 0.00 | 32 | 1020.1 |
| 20260906055017 | 78 | 335 | 3.0 | 5.0 | 0.00 | 0.00 | 0.00 | 32 | 1019.9 |
| 20260906054017 | 78 | 334 | 4.0 | 7.0 | 0.00 | 0.00 | 0.00 | 31 | 1019.9 |
| 20260906053018 | 78 | 332 | 3.0 | 7.0 | 0.00 | 0.00 | 0.00 | 31 | 1019.9 |
| 20260906052015 | 78 | 335 | 3.0 | 6.0 | 0.00 | 0.00 | 0.00 | 32 | 1019.9 |
| 20260906051035 | 78 | 323 | 3.0 | 6.0 | 0.00 | 0.00 | 0.00 | 32 | 1019.9 |
| 20260906050015 | 78 | 329 | 3.0 | 7.0 | 0.00 | 0.00 | 0.00 | 31 | 1019.8 |
| 20260906045018 | 78 | 331 | 2.0 | 6.0 | 0.00 | 0.00 | 0.00 | 31 | 1019.8 |
| 20260906044035 | 79 | 334 | 2.0 | 6.0 | 0.00 | 0.00 | 0.00 | 31 | 1019.9 |
| 20260906043016 | 79 | 325 | 2.0 | 6.0 | 0.00 | 0.00 | 0.00 | 31 | 1019.9 |
| 20260906042016 | 79 | 332 | 2.0 | 5.0 | 0.00 | 0.00 | 0.00 | 31 | 1019.8 |
| 20260906041016 | 79 | 330 | 3.0 | 6.0 | 0.00 | 0.00 | 0.00 | 30 | 1019.8 |
| 20260906040016 | 80 | 327 | 2.0 | 4.0 | 0.00 | 0.00 | 0.00 | 30 | 1019.9 |
| 20260906035016 | 80 | 328 | 3.0 | 6.0 | 0.00 | 0.00 | 0.00 | 29 | 1019.9 |
| 20260906034016 | 80 | 334 | 2.0 | 5.0 | 0.00 | 0.00 | 0.00 | 29 | 1019.9 |
| 20260906033016 | 80 | 328 | 2.0 | 3.0 | 0.00 | 0.00 | 0.00 | 29 | 1019.7 |
| 20260906032016 | 81 | 333 | 2.0 | 4.0 | 0.00 | 0.00 | 0.00 | 29 | 1019.6 |
| 20260906031017 | 81 | 339 | 2.0 | 5.0 | 0.00 | 0.00 | 0.00 | 28 | 1019.4 |
| 20260906030057 | 82 | 2 | 2.0 | 3.0 | 0.00 | 0.00 | 0.00 | 28 | 1019.3 |
| 20260906025037 | 83 | 333 | 2.0 | 4.0 | 0.00 | 0.00 | 0.00 | 27 | 1019.2 |
| 20260906024017 | 83 | 332 | 2.0 | 5.0 | 0.00 | 0.00 | 0.00 | 27 | 1019.1 |
| 20260906023017 | 84 | 330 | 2.0 | 4.0 | 0.00 | 0.00 | 0.00 | 27 | 1019.0 |
| 20260906022038 | 84 | 331 | 2.0 | 3.0 | 0.00 | 0.00 | 0.00 | 27 | 1018.9 |
| 20260906021017 | 85 | 327 | 1.0 | 3.0 | 0.00 | 0.00 | 0.00 | 27 | 1018.8 |
| 20260906020018 | 86 | 324 | 1.0 | 4.0 | 0.00 | 0.00 | 0.00 | 27 | 1018.7 |
| 20260906015018 | 86 | 337 | 2.0 | 4.0 | 0.00 | 0.00 | 0.00 | 26 | 1018.7 |
| 20260906014038 | 87 | 336 | 2.0 | 6.0 | 0.00 | 0.00 | 0.00 | 26 | 1018.6 |
| 20260906013015 | 87 | 337 | 2.0 | 5.0 | 0.00 | 0.00 | 0.00 | 26 | 1018.6 |
| 20260906012015 | 88 | 340 | 2.0 | 6.0 | 0.00 | 0.00 | 0.00 | 25 | 1018.6 |
| 20260906011015 | 88 | 323 | 2.0 | 4.0 | 0.00 | 0.00 | 0.00 | 25 | 1018.6 |
| 20260906010016 | 88 | 9 | 3.0 | 7.0 | 0.00 | 0.00 | 0.00 | 25 | 1018.6 |
| 20260906005015 | 89 | 12 | 4.0 | 8.0 | 0.00 | 0.00 | 0.00 | 25 | 1018.6 |
| 20260906004016 | 89 | 359 | 3.0 | 7.0 | 0.00 | 0.00 | 0.00 | 25 | 1018.7 |
| 20260906003016 | 89 | 341 | 3.0 | 7.0 | 0.00 | 0.00 | 0.00 | 25 | 1018.7 |
| 20260906002036 | 89 | 347 | 3.0 | 6.0 | 0.00 | 0.00 | 0.00 | 25 | 1018.6 |
| 20260906001016 | 90 | 354 | 3.0 | 8.0 | 0.00 | 0.00 | 0.00 | 25 | 1018.5 |
| 20260906000016 | 90 | 16 | 4.0 | 9.0 | 0.00 | 0.00 | 0.00 | 25 | 1018.5 |
| 20260905235036 | 91 | 11 | 3.0 | 6.0 | 0.00 | 0.00 | 0.00 | 24 | 1018.5 |
| 20260905234016 | 90 | 356 | 4.0 | 9.0 | 0.00 | 0.00 | 0.00 | 25 | 1018.4 |
| 20260905233017 | 90 | 2 | 5.0 | 10.0 | 0.00 | 0.00 | 0.00 | 25 | 1018.4 |
| 20260905232017 | 91 | 16 | 5.0 | 10.0 | 0.00 | 0.00 | 0.00 | 25 | 1018.4 |